Weather in Melekeok

Palau     7°29′53″N   134°38′14″E
В апреле 2022 года жителям России запретили посещать сайт meteo.paraplan.net по решению Генеральной прокуратуры. Аудитория сайта уменьшилась в 10 раз. Владельцы сайта не видят смысла в поддержке погодного сервера в таких условиях. Сайт будет закрыт в октябре.
temp.,
°C
wind,
m/s
gust,
m/s
humid.,
%
clouds,
%
prec.,
mm/h
press.,
hPa
HPBL,
m
30 september, fri
fri3000:00+29e56739 0.0 1011917
03:00+28e55748 0.1 1010865
06:00+28e557534 0.6 1011811
09:00+29e457314 0.8 1011898
12:00+29e447287 0.4 1010863
15:00+29e44727 0.7 1008861
18:00+29e447340 1.2 1009792
21:00+29ese347443 2.0 1011696
1 october, sat
sat100:00+29e44746 0.3 1010733
03:00+28e447578 0.6 1009771
06:00+28e3374100 0.0 1010735
09:00+29ene447296 0.0 1011888
12:00+29ene4472100 0.1 1009854
15:00+29ene33716 0.8 1008873
18:00+28ne4576100 1.1 1008585
21:00+28ene5578100 2.0 1010524
2 october, sun
sun200:00+28ene4577100 1.1 1009734
03:00+28ene4576100 2.6 1007780
06:00+29ene5674100 0.4 1008902
09:00+28ese6678100 4.5 1010610
12:00+28ese6776100 5.5 1008566
15:00+26sse7884100 11.0 1007660
18:00+26sse91089100 9.9 1008655
21:00+27sse6782100 10.6 1009619
3 october, mon
mon300:00+27sse5675100 0.0 1009799
03:00+27sse457695 0.6 1008686
06:00+28se7769100 1.4 10091187
09:00+28se6774100 2.0 1010779
12:00+29se5670100 0.1 10091041
15:00+28se4571100 0.2 1007885
18:00+29ese456990 0.2 1008851
21:00+29ene457099 0.2 1010805
4 october, tue
tue400:00+29ene567177 0.0 1009907
03:00+29ene667292 0.0 10081042
06:00+29ene6774100 0.6 1009946
09:00+29ene677298 1.3 10101061
12:00+29e677045 0.4 10091114
15:00+29e56715 0.6 1007973
18:00+29ene5673100 1.3 1008931
21:00+28ene577893 6.1 1010501